Weather History for San Diego, CA

Change the Weather History Date:

Saturday, November 10, 2012

  Actual Average Record
Temperature  
Mean Temperature 61 °F 63 °F  
Max Temperature 64 °F 70 °F 91 °F (1956)
Min Temperature 57 °F 55 °F 44 °F (1919)
Degree Days  
Heating Degree Days 4 3  
Month to date heating degree days 15 24  
Since 1 July heating degree days 19 45  
Cooling Degree Days 0 1  
Month to date cooling degree days 15 10  
Year to date cooling degree days 898 717  
Growing Degree Days 10 (Base 50)    
Moisture  
Dew Point 40 °F    
Average Humidity 49    
Maximum Humidity 62    
Minimum Humidity 36    
Precipitation  
Precipitation T in 0.03 in 0.96 in (1949)
Month to date precipitation 0.18 0.26  
Year to date precipitation 4.34 8.06  
Since 1 July precipitation 0.88 1.03  
Snow  
Snow 0.00 in - - ()
Month to date snowfall 0.0  
Year to date snowfall 0.0  
Since 1 July snowfall 0.0  
Snow Depth 0.00 in    
Sea Level Pressure  
Sea Level Pressure 30.09 in    
Wind  
Wind Speed 13 mph (WNW)    
Max Wind Speed 22 mph    
Max Gust Speed 28 mph    
Visibility 10 miles    
Events      
T = Trace of Precipitation, MM = Missing Value Source: NWS Daily Summary

Daily Weather History Graph

Daily Weather History Graph

Search for Another Location

Airport:

Trip Planner

Search our weather history database for the weather conditions in past years. The results will help you decide how hot, cold, wet, or windy it might be!

Date:

Astronomy

Nov. 10, 2012 Rise Set
Actual Time 6:14 AM PST 4:50 PM PST
Civil Twilight 5:48 AM PST 5:16 PM PST
Nautical Twilight 5:19 AM PST 5:45 PM PST
Astronomical Twilight 4:50 AM PST 6:14 PM PST
Moon 2:35 AM PST (11/10) 2:31 PM PST (11/10)
Length of Visible Light 11h 27m
Length of Day
10h 35m
Waning Crescent, 13% of the Moon is Illuminated
Nov 10
Waning Crescent
Nov 13
New
Nov 20
First Quarter
Nov 28
Full
Dec 6
Last Quarter

Hourly Weather History & Observations

Time (PST) Temp. Dew Point Humidity Pressure Visibility Wind Dir Wind Speed Gust Speed Precip Events Conditions
12:51 AM 57.9 °F 42.1 °F 56% 29.99 in 10.0 mi WNW 11.5 mph - 0.00 in   Mostly Cloudy
1:51 AM 57.9 °F 39.9 °F 51% 30.00 in 10.0 mi WNW 9.2 mph - N/A   Partly Cloudy
2:51 AM 57.9 °F 42.1 °F 56% 30.00 in 10.0 mi WNW 6.9 mph - N/A   Mostly Cloudy
3:51 AM 57.0 °F 39.9 °F 53% 30.01 in 10.0 mi WNW 9.2 mph - N/A   Partly Cloudy
4:51 AM 57.9 °F 39.9 °F 51% 30.01 in 10.0 mi WNW 10.4 mph - N/A   Scattered Clouds
5:51 AM 57.9 °F 42.1 °F 56% 30.03 in 10.0 mi WNW 15.0 mph 20.7 mph N/A   Mostly Cloudy
6:51 AM 57.9 °F 39.9 °F 51% 30.05 in 10.0 mi WNW 6.9 mph - N/A   Scattered Clouds
7:51 AM 59.0 °F 39.0 °F 48% 30.08 in 10.0 mi WNW 13.8 mph 21.9 mph N/A   Mostly Cloudy
8:51 AM 60.1 °F 39.0 °F 46% 30.10 in 10.0 mi WNW 15.0 mph 23.0 mph N/A   Mostly Cloudy
9:51 AM 61.0 °F 39.9 °F 46% 30.12 in 10.0 mi WNW 15.0 mph 21.9 mph N/A   Mostly Cloudy
10:51 AM 62.1 °F 39.0 °F 43% 30.11 in 10.0 mi WNW 15.0 mph 24.2 mph N/A   Mostly Cloudy
11:51 AM 63.0 °F 39.0 °F 41% 30.10 in 10.0 mi WNW 17.3 mph 25.3 mph N/A   Scattered Clouds
12:51 PM 62.1 °F 39.0 °F 43% 30.08 in 10.0 mi WNW 16.1 mph 26.5 mph N/A   Scattered Clouds
1:00 PM - - N/A% - - North - - N/A   Sand
1:51 PM 62.1 °F 36.0 °F 38% 30.07 in 10.0 mi WNW 16.1 mph - N/A   Scattered Clouds
2:51 PM 62.1 °F 35.1 °F 37% 30.07 in 10.0 mi WNW 15.0 mph 24.2 mph N/A   Scattered Clouds
3:51 PM 60.1 °F 39.0 °F 46% 30.08 in 10.0 mi WNW 12.7 mph 23.0 mph N/A   Scattered Clouds
4:51 PM 59.0 °F 39.0 °F 48% 30.09 in 10.0 mi WNW 16.1 mph - N/A   Scattered Clouds
5:51 PM 59.0 °F 41.0 °F 51% 30.11 in 10.0 mi WNW 11.5 mph 19.6 mph N/A   Scattered Clouds
6:51 PM 59.0 °F 42.1 °F 53% 30.12 in 10.0 mi NW 11.5 mph - N/A   Scattered Clouds
7:51 PM 59.0 °F 43.0 °F 55% 30.14 in 10.0 mi WNW 9.2 mph - N/A   Scattered Clouds
8:51 PM 59.0 °F 43.0 °F 55% 30.15 in 10.0 mi NW 6.9 mph - N/A   Scattered Clouds
9:51 PM 57.0 °F 44.1 °F 62% 30.16 in 10.0 mi East 5.8 mph - N/A   Mostly Cloudy
10:51 PM 55.9 °F 43.0 °F 62% 30.17 in 10.0 mi Variable 4.6 mph - N/A   Overcast
11:51 PM 55.0 °F 43.0 °F 64% 30.17 in 10.0 mi East 4.6 mph - N/A   Clear